Location: D�pe
(52.6057°N, 8.1808°E)
Time: 07:55:50
(UTC+00:00)

Resurs 01 Rocket - Pass Details

Date: 29 October 2020
Orbit: 635 x 644 km, 98.0° (Epoch: 01 December)

Event Time Altitude Azimuth Distance (km) Brightness Sun altitude
Exits shadow 19:11:36 13° 2° (N) 1,858 4.1 -29.1°
Drops below altitude 10° 19:12:05 10° 359° (N) 2,035 4.4 -29.1°
Sets 19:14:24 0° 351° (N) 2,948 5.4 -29.5°
